Weather Roundup
Issued by NWS

Home | Current Version | Previous Version | Graphics & Text | Print | Product List | Glossary Off
Versions: 1 2 3 4 5 6 7 8 9 10 11 12 13 14 15 16 17 18 19 20 21 22 23 24 25 26 27 28 29 30 31 32 33 34 35 36 37 38 39 40 41 42 43 44 45 46 47 48 49 50

000
NZUS93 KARX 222210
HRRWXR

CURRENT HOURLY OBSERVATIONS ACROSS
MUCH OF THE UPPER MISSISSIPPI VALLEY
NATIONAL WEATHER SERVICE LA CROSSE WI
500 PM CDT THU JUN 22 2017


...SOUTHEAST MINNESOTA...


CITY           SKY/WX    TMP DP  RH WIND       PRES   REMARKS
ROCHESTER      CLOUDY    71  67  87 SE3       29.72F
ROCHESTER/MAYO CLOUDY    70  69  98 CALM      29.72F
WINONA         CLOUDY    70  68  94 CALM      29.71F
AUSTIN         CLOUDY    72  64  78 CALM      29.71R
ALBERT LEA     CLOUDY    75  66  73 N3        29.71S
DODGE CENTER   CLOUDY    70  64  83 N5        29.74R
PRESTON        CLOUDY    68  66  92 E7        29.73F
OWATONNA       CLOUDY    72  64  78 N9        29.73F
FARIBAULT      CLOUDY    72  64  78 NW6       29.74F
$$

...ELSEWHERE IN MINNESOTA...


CITY           SKY/WX    TMP DP  RH WIND       PRES   REMARKS
MINNEAPOLIS    LGT RAIN  66  62  87 NW8       29.75F
INTNL FALLS    MOSUNNY   73  45  36 W8        29.61R
DULUTH         MOSUNNY   75  47  36 W15       29.68S
RED WING       CLOUDY    72  66  83 CALM      29.72S
REDWOOD FALLS  CLOUDY    70  58  65 NW9       29.76F
MANKATO        CLOUDY    69  63  81 N14       29.75S
WORTHINGTON    CLOUDY    67  61  81 N13       29.78R
FAIRMONT       CLOUDY    74  68  81 N16       29.72F
$$

...SOUTHWEST WISCONSIN...


CITY           SKY/WX    TMP DP  RH WIND       PRES   REMARKS
LA CROSSE      TSTM      71  69  93 CALM      29.72F FOG
PRAIRIE DU CHI CLOUDY    80  70  70 NW7       29.69S
BOSCOBEL       PTSUNNY   77  71  82 N6        29.71S
LONE ROCK      LGT RAIN  76  69  79 E8        29.70F
PLATTEVILLE    CLOUDY    81  71  72 S6        29.70F
FORT MC COY    TSTM      67  66  99 E5        29.75S
CAMP DOUGLAS   LGT RAIN  68  68 100 NW8       29.76R FOG
MAUSTON-NEW LI CLOUDY    69  68  96 CALM      29.74R FOG
VIROQUA        CLOUDY    70  69  96 NE6       29.75F
WIS DELLS      CLOUDY    71  65  81 NE3       29.73F
$$

...ELSEWHERE IN WISCONSIN...


CITY           SKY/WX    TMP DP  RH WIND       PRES   REMARKS
MILWAUKEE      PTSUNNY   75  66  73 N9        29.72F
MADISON        PTSUNNY   79  68  69 E5        29.71F
GREEN BAY      LGT RAIN  72  70  93 W7        29.72F
EAU CLAIRE     CLOUDY    70  66  87 CALM      29.71F
BLACK RVR FLS  CLOUDY    68  68 100 S5        29.71F
MEDFORD        CLOUDY    65  62  87 W5        29.74S
WAUSAU         LGT RAIN  66  64  93 S6        29.72R
WIS RAPIDS     RAIN      67  66  97 S7        29.75S FOG
MARSHFIELD     LGT RAIN  66  64  93 S7        29.72S FOG
RICE LAKE      CLOUDY    65  63  92 SW6       29.76S
$$

...NORTHEAST IOWA...


CITY           SKY/WX    TMP DP  RH WIND       PRES   REMARKS
WATERLOO       PTSUNNY   83  70  64 SW6       29.67F
DUBUQUE        PTSUNNY   81  69  67 S8        29.71F
DECORAH        CLOUDY    75  70  83 CALM      29.72R
MASON CITY     CLOUDY    73  69  87 NE8       29.71S
CHARLES CITY   CLOUDY    79  73  83 S6        29.70F
OELWEIN        CLOUDY    79  73  83 SE6       29.70F
$$

...ELSEWHERE IN IOWA...


CITY           SKY/WX    TMP DP  RH WIND       PRES   REMARKS
DES MOINES     PTSUNNY   86  67  52 SW16      29.65S
IOWA CITY      PTSUNNY   87  70  56 S13G18    29.68R HX  92
FORT DODGE     CLOUDY    77  68  73 N8        29.68R
MARSHALLTOWN   CLOUDY    86  71  60 S14       29.65F HX  91
CEDAR RAPIDS   MOSUNNY   85  74  69 S7        29.67F HX  92
$$

...NORTHERN ILLINOIS...


CITY           SKY/WX    TMP DP  RH WIND       PRES   REMARKS
CHICAGO-OHARE  PTSUNNY   86  69  56 S17G29    29.73F HX  90
CHICAGO-MIDWAY PTSUNNY   85  71  63 S17G24    29.75F HX  90
MOLINE         SUNNY     86  70  58 S14G24    29.69F HX  90
ROCKFORD       CLOUDY    85  70  60 S17G29    29.70F
PEORIA         PTSUNNY   83  73  72 S10       29.75F
$$

NOTE: "FAIR" INDICATES FEW OR NO CLOUDS BELOW 12,000 FEET WITH NO
SIGNIFICANT WEATHER AND/OR OBSTRUCTIONS TO VISIBILITY. WIND
SPEEDS ARE IN MILES-PER-HOUR.




USA.gov is the U.S. government's official web portal to all federal, state and local government web resources and services.